TimeCST,TemperatureF,Dew PointF,Humidity,Sea Level PressureIn,VisibilityMPH,Wind Direction,Wind SpeedMPH,Gust SpeedMPH,PrecipitationIn,Events,Conditions,WindDirDegrees,DateUTC
12:56 AM,46.0,34.0,63,30.24,10.0,East,4.6,-,N/A,,Clear,80,2011-11-06 05:56:00
1:56 AM,45.0,34.0,65,30.23,10.0,East,5.8,-,N/A,,Clear,80,2011-11-06 06:56:00
1:56 AM,45.0,35.1,68,30.23,10.0,East,6.9,-,N/A,,Clear,80,2011-11-06 07:56:00
2:56 AM,45.0,36.0,71,30.25,10.0,East,4.6,-,N/A,,Scattered Clouds,90,2011-11-06 08:56:00
3:56 AM,46.9,37.9,71,30.26,10.0,East,6.9,-,N/A,,Overcast,90,2011-11-06 09:56:00
4:56 AM,46.0,37.9,73,30.27,10.0,ENE,5.8,-,N/A,,Clear,70,2011-11-06 10:56:00
5:56 AM,45.0,37.9,76,30.29,10.0,ENE,4.6,-,N/A,,Clear,60,2011-11-06 11:56:00
6:56 AM,46.9,39.0,74,30.33,10.0,ENE,4.6,-,N/A,,Scattered Clouds,70,2011-11-06 12:56:00
7:56 AM,51.1,39.9,66,30.35,10.0,ENE,8.1,-,0.00,,Mostly Cloudy,70,2011-11-06 13:56:00
8:56 AM,55.0,42.1,62,30.34,10.0,East,9.2,-,N/A,,Mostly Cloudy,80,2011-11-06 14:56:00
9:56 AM,57.9,44.1,60,30.35,10.0,East,9.2,-,N/A,,Mostly Cloudy,100,2011-11-06 15:56:00
10:56 AM,62.1,46.0,56,30.33,10.0,NE,8.1,-,N/A,,Partly Cloudy,50,2011-11-06 16:56:00
11:56 AM,64.9,48.0,54,30.29,10.0,ENE,6.9,-,N/A,,Partly Cloudy,70,2011-11-06 17:56:00
12:56 PM,68.0,51.1,55,30.25,10.0,ENE,8.1,-,N/A,,Scattered Clouds,60,2011-11-06 18:56:00
1:56 PM,71.1,52.0,51,30.24,10.0,Variable,6.9,-,N/A,,Clear,0,2011-11-06 19:56:00
2:56 PM,70.0,52.0,53,30.23,10.0,East,6.9,-,N/A,,Clear,100,2011-11-06 20:56:00
3:56 PM,70.0,52.0,53,30.23,10.0,East,5.8,-,N/A,,Clear,90,2011-11-06 21:56:00
4:56 PM,66.0,51.1,59,30.24,10.0,NE,3.5,-,N/A,,Clear,50,2011-11-06 22:56:00
5:56 PM,62.1,51.1,67,30.26,10.0,NE,4.6,-,N/A,,Clear,40,2011-11-06 23:56:00
6:56 PM,61.0,50.0,67,30.27,10.0,ENE,4.6,-,N/A,,Clear,70,2011-11-07 00:56:00
7:56 PM,60.1,50.0,69,30.28,10.0,Calm,Calm,-,N/A,,Clear,0,2011-11-07 01:56:00
8:56 PM,59.0,51.1,75,30.29,10.0,East,4.6,-,N/A,,Clear,80,2011-11-07 02:56:00
9:56 PM,60.1,51.1,72,30.29,10.0,ENE,3.5,-,N/A,,Scattered Clouds,60,2011-11-07 03:56:00
10:56 PM,60.1,51.1,72,30.29,10.0,East,3.5,-,N/A,,Mostly Cloudy,90,2011-11-07 04:56:00